[[{"header":{"parameterUnit":"m.s-1","parameterCategory":1,"la1":30.2991,"la2":30.254,"lo1":-89.0895,"lo2":-89.0444,"dy":0.0017,"dx":0.0017,"nx":28,"ny":28,"refTime":"2024-08-24T09:00:00:Z","depth":0,"parameterNumber":2,"parameterNumberName":"U-component_of_WINDS"},"data":[0,0,0,0,0,0,0,0,0,0,0,0,0,0,0,0,0,0,0,0,0,0,0,0,0,0,0,0,0,0,0,0,0,0,0,0,0,0,0,0,0,0,0,0,0,0,0,0,0,0,0,0,0,0,0,0,0,0,-5.6354,-5.6354,0,-5.6392,-5.6393,-5.6393,-5.6273,-5.627,-5.6266,-5.6262,-5.6303,-5.6308,-5.6312,0,0,0,0,0,0,0,0,0,0,0,0,0,-5.618,-5.6184,-5.6354,-5.6354,-5.6355,-5.6392,-5.6393,-5.6393,-5.6274,-5.6269,-5.6265,-5.6261,-5.6302,-5.6307,-5.6313,0,0,0,0,0,0,0,0,0,0,0,0,0,-5.6241,-5.6185,-5.6354,-5.63,-5.6295,-5.6392,-5.6393,-5.6393,-5.6275,-5.6269,-5.6264,-5.6259,-5.63,-5.6307,-5.6313,-5.6465,0,0,-5.6334,-5.6337,0,0,0,0,0,0,0,0,-5.6237,-5.6247,-5.6307,-5.6304,-5.6299,-5.6322,-5.6346,-5.6417,-5.6276,-5.6283,-5.6262,-5.6256,-5.6314,-5.632,-5.6339,-5.6467,-5.6468,-5.6335,-5.6339,-5.6342,-5.6344,0,0,0,0,0,0,0,-5.6233,-5.6245,-5.6369,-5.6308,-5.6303,-5.6274,-5.6277,-5.6359,-5.6329,-5.6282,-5.6273,-5.6279,-5.6311,-5.6333,-5.6339,-5.6469,-5.6334,-5.634,-5.6345,-5.6347,-5.6725,-5.6731,0,0,0,0,0,0,-5.6236,-5.6242,-5.6368,-5.637,-5.6254,-5.6282,-5.6285,-5.632,-5.6328,-5.6323,-5.6284,-5.6273,-5.6324,-5.6331,-5.634,-5.6519,-5.6342,-5.6348,-5.6352,-5.6719,-5.6726,-5.6733,0,0,0,0,0,0,-5.6233,-5.6248,-5.6366,-5.6304,-5.6317,-5.6291,-5.6332,-5.6324,-5.6345,-5.6329,-5.6323,-5.6311,-5.632,-5.633,-5.6435,-5.6519,-5.6351,-5.6357,-5.6712,-5.6721,-5.6729,-5.6878,0,0,0,0,0,0,-5.6228,-5.6248,-5.6304,-5.6306,-5.632,-5.6461,-5.6337,-5.6329,-5.6357,-5.6344,-5.6353,-5.635,-5.6316,-5.6425,-5.6442,-5.6525,-5.6362,-5.6704,-5.6716,-5.6727,-5.6866,-5.6891,-5.6913,0,0,0,0,0,-5.6222,-5.6345,-5.6308,-5.6324,-5.6391,-5.6466,-5.6474,-5.6432,-5.6364,-5.6422,-5.6411,-5.6349,-5.6507,-5.6437,-5.6454,-5.6541,-5.6699,-5.6713,-5.6726,-5.6855,-5.6886,-5.6912,0,0,0,0,0,0,-5.6354,-5.6344,-5.6303,-5.6429,-5.6449,-5.6445,-5.6516,-5.6466,-5.6506,-5.6492,-5.6439,-5.6442,-5.6557,-5.6559,-5.6482,-5.6689,-5.6591,-5.6609,-5.6684,-5.6713,-5.6736,-5.6734,-5.6368,0,0,0,0,0,-5.6397,-5.6458,-5.6446,-5.6559,-5.6571,-5.6543,-5.6573,-5.654,-5.6558,-5.6566,-5.6563,-5.6585,-5.6639,-5.6675,-5.6724,-5.6865,-5.6866,-5.6933,-5.6956,-5.6976,-5.6992,-5.7069,-5.7099,-5.6777,-5.6777,-5.6776,0,0,-5.6488,-5.649,-5.6532,-5.6586,-5.6597,-5.6663,-5.655,-5.6624,-5.6672,-5.6577,-5.6676,-5.6675,-5.6695,-5.6819,-5.6873,-5.6824,-5.7081,-5.6993,-5.7009,-5.7015,-5.7086,-5.7116,-5.7144,-5.6786,-5.6784,-5.6783,0,0,-5.6688,-5.6695,-5.6791,-5.6805,-5.6823,-5.6803,-5.6826,-5.683,-5.6826,-5.6924,-5.6855,-5.6912,-5.7006,-5.7024,-5.7045,-5.7253,-5.7198,-5.727,-5.7394,-5.7469,-5.7495,-5.7517,-5.7593,-5.7621,-5.7286,-5.7286,-5.7287,0,-5.6799,-5.6894,-5.6846,-5.6925,-5.6952,-5.6868,-5.6966,-5.6981,-5.7016,-5.7036,-5.698,-5.7098,-5.7105,-5.7233,-5.7284,-5.7303,-5.7329,-5.727,-5.7495,-5.7517,-5.7537,-5.7609,-5.7638,-5.7295,-5.7294,-5.7293,-5.7292,0,-5.7031,-5.7098,-5.7173,-5.7209,-5.7243,-5.7331,-5.7297,-5.7338,-5.7301,-5.7288,-5.739,-5.7396,-5.7446,-5.7473,-5.7438,-5.7597,-5.7566,-5.7504,-5.7405,-5.7577,-5.7644,-5.7671,-5.7308,-5.7305,-5.7302,-5.73,0,0,-5.7315,-5.7323,-5.7352,-5.7368,-5.7382,-5.7434,-5.7518,-5.7566,-5.7604,-5.763,-5.7701,-5.7782,-5.7725,-5.775,-5.7716,-5.7782,-5.7949,-5.7711,-5.7711,-5.7757,-5.8127,-5.8175,-5.8208,-5.7912,-5.7917,-5.7921,-5.8126,0,-5.7514,-5.7658,-5.7618,-5.7763,-5.7826,-5.7748,-5.7821,-5.7839,-5.7829,-5.7881,-5.787,-5.793,-5.7848,-5.7863,-5.7924,-5.7915,-5.8023,-5.79,-5.7979,-5.7983,-5.7979,-5.8243,-5.8294,-5.8487,-5.8151,-5.8156,-5.8159,0,-5.7764,-5.7801,-5.7953,-5.7958,-5.7983,-5.805,-5.8092,-5.8142,-5.8161,-5.8149,-5.8177,-5.8131,-5.8215,-5.8115,-5.8232,-5.8149,-5.8179,-5.818,-5.8186,-5.8194,-5.8083,-5.8259,-5.8547,-5.8578,-5.8199,-5.8196,-5.8193,0,-5.7959,-5.8046,-5.8149,-5.8164,-5.8173,-5.8222,-5.8228,-5.8242,-5.8274,-5.831,-5.8331,-5.8377,-5.8403,-5.844,-5.8408,-5.8337,-5.8531,-5.8427,-5.8525,-5.8527,-5.8571,-5.8569,-5.887,-5.8587,-5.8587,-5.8586,-5.8586,0,-5.8186,-5.8283,-5.8237,-5.83,-5.8406,-5.8359,-5.8465,-5.8463,-5.8476,-5.8538,-5.8473,-5.8533,-5.8485,-5.8542,-5.8517,-5.8619,-5.863,-5.8624,-5.8617,-5.8631,-5.8633,-5.8652,-5.8638,-5.8594,-5.8592,-5.8591,-5.8589,0,-5.8423,-5.8395,-5.8502,-5.8502,-5.8504,-5.8583,-5.8583,-5.8642,-5.8627,-5.8707,-5.8723,-5.87,-5.8763,-5.8734,-5.8799,-5.8783,-5.8915,-5.8888,-5.8909,-5.8903,-5.9003,-5.8995,-5.9329,-5.9371,-5.9059,-5.9062,-5.9065,0,-5.857,-5.8643,-5.8651,-5.8687,-5.8698,-5.8758,-5.8791,-5.8747,-5.8784,-5.8812,-5.8868,-5.8925,-5.8969,-5.9074,-5.9064,-5.9114,-5.909,-5.9203,-5.9097,-5.911,-5.9095,-5.9092,-5.91,-5.9226,-5.9229,-5.9232,-5.9235,0,-5.8836,-5.8819,-5.8868,-5.8914,-5.8954,-5.8988,-5.9016,-5.905,-5.9007,-5.9052,-5.9116,-5.915,-5.9217,-5.9276,-5.932,-5.9327,-5.9276,-5.9268,-5.9294,-5.931,-5.932,-5.9319,-5.8969,-5.9261,-5.9258,-5.9256,-5.9255,-5.9254,-5.9034,-5.9095,-5.9111,-5.9168,-5.9185,-5.9213,-5.9269,-5.9261,-5.9313,-5.9365,-5.9335,-5.9411,-5.9429,-5.9484,-5.9498,-5.9557,-5.9512,-5.9549,-5.9559,-5.9569,-5.9584,-5.9309,-5.9565,-5.9564,-5.9563,-5.9562,-5.9562,0,-5.9298,-5.9304,-5.9358,-5.9399,-5.9445,-5.939,-5.9419,-5.9461,-5.9528,-5.9549,-5.9593,-5.9667,-5.9724,-5.9719,-5.9771,-5.982,-5.9797,-5.9835,-5.9832,-5.9835,-5.9619,-5.9593,-5.9852,-5.9852,-5.9852,-5.9852,-5.9852,-5.9852,-5.9441,-5.9543,-5.9529,-5.9638,-5.9644,-5.9716,-5.9738,-5.9764,-5.9781,-5.9866,-5.9913,-5.9909,-5.992,-5.9973,-6.0023,-6.002,-6.0044,-6.0091,-6.008,-5.9879,-5.985,-5.9823,-5.9798,-6.0096,-6.0096,-6.0291,-6.0293,-6.0294]},{"header":{"parameterUnit":"m.s-1","parameterCategory":1,"la1":30.2991,"la2":30.254,"lo1":-89.0895,"lo2":-89.0444,"dy":0.0017,"dx":0.0017,"nx":28,"ny":28,"refTime":"2024-08-24T09:00:00:Z","depth":0,"parameterNumber":3,"parameterNumberName":"V-component_of_WINDS"},"data":[0,0,0,0,0,0,0,0,0,0,0,0,0,0,0,0,0,0,0,0,0,0,0,0,0,0,0,0,0,0,0,0,0,0,0,0,0,0,0,0,0,0,0,0,0,0,0,0,0,0,0,0,0,0,0,0,0,0,-2.8432,-2.8432,0,-2.8432,-2.8432,-2.8432,-2.8395,-2.8394,-2.8393,-2.8392,-2.8393,-2.8394,-2.8395,0,0,0,0,0,0,0,0,0,0,0,0,0,-2.8398,-2.8399,-2.8432,-2.8432,-2.8432,-2.8432,-2.8432,-2.8432,-2.8395,-2.8394,-2.8393,-2.8392,-2.8393,-2.8394,-2.8395,0,0,0,0,0,0,0,0,0,0,0,0,0,-2.8407,-2.8399,-2.8432,-2.8413,-2.8412,-2.8432,-2.8432,-2.8432,-2.8396,-2.8394,-2.8393,-2.8391,-2.8392,-2.8394,-2.8395,-2.8433,0,0,-2.8399,-2.84,0,0,0,0,0,0,0,0,-2.8407,-2.8408,-2.8416,-2.8415,-2.8413,-2.8412,-2.842,-2.8432,-2.8396,-2.8402,-2.8392,-2.8391,-2.8401,-2.8401,-2.8404,-2.8433,-2.8433,-2.8399,-2.84,-2.8401,-2.8401,0,0,0,0,0,0,0,-2.8406,-2.8408,-2.8432,-2.8416,-2.8414,-2.8405,-2.8405,-2.8423,-2.8409,-2.8401,-2.8399,-2.8399,-2.8399,-2.8403,-2.8404,-2.8433,-2.8399,-2.8401,-2.8401,-2.8402,-2.8491,-2.8493,0,0,0,0,0,0,-2.8408,-2.8408,-2.8432,-2.8432,-2.8406,-2.8407,-2.8406,-2.8414,-2.8409,-2.8407,-2.84,-2.8397,-2.8402,-2.8403,-2.8404,-2.8447,-2.8401,-2.8402,-2.8403,-2.849,-2.8492,-2.8493,0,0,0,0,0,0,-2.8407,-2.841,-2.8432,-2.8419,-2.8421,-2.8409,-2.8418,-2.8415,-2.8418,-2.8408,-2.8406,-2.8407,-2.84,-2.8402,-2.8426,-2.8447,-2.8403,-2.8404,-2.8488,-2.849,-2.8493,-2.8535,0,0,0,0,0,0,-2.8407,-2.841,-2.8425,-2.842,-2.8422,-2.8454,-2.8419,-2.8416,-2.8421,-2.8417,-2.8414,-2.8412,-2.8399,-2.8424,-2.8427,-2.8448,-2.8405,-2.8486,-2.8489,-2.8492,-2.8532,-2.8539,-2.8545,0,0,0,0,0,-2.8405,-2.8437,-2.8426,-2.8429,-2.844,-2.8455,-2.8456,-2.8442,-2.8423,-2.8437,-2.8431,-2.8412,-2.8444,-2.8427,-2.843,-2.8452,-2.8485,-2.8488,-2.8492,-2.8529,-2.8537,-2.8544,0,0,0,0,0,0,-2.8446,-2.8436,-2.8424,-2.8455,-2.8456,-2.8449,-2.8467,-2.8451,-2.8458,-2.8454,-2.8435,-2.8435,-2.8461,-2.8459,-2.8439,-2.8488,-2.8461,-2.8465,-2.8488,-2.8496,-2.8502,-2.8502,-2.8406,0,0,0,0,0,-2.8458,-2.8471,-2.8462,-2.8491,-2.8492,-2.8479,-2.8485,-2.8474,-2.8474,-2.8475,-2.847,-2.8471,-2.8481,-2.8489,-2.8498,-2.8531,-2.853,-2.8548,-2.8554,-2.8559,-2.8563,-2.858,-2.8588,-2.8505,-2.8505,-2.8505,0,0,-2.8484,-2.848,-2.849,-2.8499,-2.8498,-2.8512,-2.848,-2.8496,-2.8506,-2.8477,-2.8499,-2.8496,-2.8496,-2.8524,-2.8537,-2.8523,-2.8586,-2.8564,-2.8568,-2.8569,-2.8585,-2.8592,-2.8599,-2.8507,-2.8507,-2.8506,0,0,-2.8538,-2.8537,-2.856,-2.856,-2.856,-2.8551,-2.8557,-2.8552,-2.8548,-2.857,-2.8548,-2.856,-2.8578,-2.8579,-2.8581,-2.8635,-2.8618,-2.8638,-2.8672,-2.8688,-2.8695,-2.87,-2.8719,-2.8726,-2.8642,-2.8642,-2.8642,0,-2.8571,-2.8591,-2.8574,-2.8592,-2.8596,-2.8569,-2.8592,-2.8593,-2.8596,-2.8599,-2.8584,-2.8606,-2.8604,-2.8632,-2.8645,-2.8648,-2.8654,-2.8639,-2.8695,-2.8701,-2.8706,-2.8723,-2.8731,-2.8645,-2.8644,-2.8644,-2.8644,0,-2.863,-2.8645,-2.8663,-2.8666,-2.8672,-2.8692,-2.8678,-2.8686,-2.8674,-2.8666,-2.8688,-2.8685,-2.8693,-2.8699,-2.8687,-2.8725,-2.8716,-2.8699,-2.8671,-2.8717,-2.8733,-2.8739,-2.8648,-2.8647,-2.8647,-2.8646,0,0,-2.8711,-2.8703,-2.871,-2.8711,-2.8708,-2.8719,-2.8737,-2.8744,-2.8752,-2.8754,-2.8769,-2.8785,-2.8768,-2.8771,-2.8759,-2.8774,-2.8815,-2.8754,-2.8753,-2.8765,-2.8857,-2.887,-2.8878,-2.8804,-2.8805,-2.8806,-2.8857,0,-2.8763,-2.8794,-2.8779,-2.8812,-2.8825,-2.88,-2.8816,-2.8816,-2.8809,-2.8819,-2.8811,-2.8822,-2.88,-2.8801,-2.8815,-2.8808,-2.8834,-2.8804,-2.8818,-2.8818,-2.8818,-2.8887,-2.8901,-2.8949,-2.8863,-2.8864,-2.8865,0,-2.8829,-2.8833,-2.8868,-2.8861,-2.8866,-2.8881,-2.8886,-2.8895,-2.8894,-2.8888,-2.8892,-2.8876,-2.8893,-2.8866,-2.889,-2.887,-2.8874,-2.8872,-2.8873,-2.8874,-2.8844,-2.8889,-2.8964,-2.8971,-2.8875,-2.8874,-2.8873,0,-2.8883,-2.8898,-2.892,-2.8922,-2.8915,-2.8926,-2.8924,-2.8922,-2.8927,-2.8931,-2.8934,-2.894,-2.8944,-2.8949,-2.8935,-2.8917,-2.896,-2.8932,-2.8956,-2.8956,-2.8966,-2.8965,-2.9042,-2.8969,-2.8969,-2.8969,-2.8969,0,-2.8943,-2.8965,-2.8945,-2.8958,-2.8982,-2.8964,-2.8988,-2.8983,-2.8981,-2.8993,-2.8971,-2.8983,-2.8964,-2.8974,-2.8963,-2.8984,-2.8986,-2.8981,-2.8978,-2.8983,-2.8984,-2.8986,-2.8982,-2.8971,-2.897,-2.897,-2.897,0,-2.9009,-2.8996,-2.9018,-2.901,-2.9008,-2.9026,-2.9019,-2.9031,-2.9023,-2.9038,-2.9041,-2.9028,-2.9038,-2.9025,-2.9034,-2.9026,-2.9055,-2.9047,-2.9055,-2.9053,-2.9077,-2.9075,-2.9158,-2.9167,-2.9089,-2.9089,-2.909,0,-2.9048,-2.9064,-2.9057,-2.9063,-2.9062,-2.9073,-2.9078,-2.906,-2.9066,-2.9066,-2.9078,-2.9086,-2.9092,-2.911,-2.9101,-2.9108,-2.91,-2.9128,-2.9101,-2.9105,-2.91,-2.9099,-2.91,-2.9134,-2.9135,-2.9136,-2.9136,0,-2.9118,-2.9111,-2.9118,-2.9123,-2.913,-2.9133,-2.9135,-2.9141,-2.9123,-2.913,-2.914,-2.9145,-2.9154,-2.9162,-2.9167,-2.9164,-2.9147,-2.9145,-2.9151,-2.9156,-2.916,-2.9158,-2.907,-2.9143,-2.9142,-2.9142,-2.9142,-2.9141,-2.9171,-2.9184,-2.9181,-2.919,-2.9189,-2.9191,-2.9202,-2.9194,-2.9202,-2.9208,-2.9197,-2.921,-2.9208,-2.9212,-2.9211,-2.9221,-2.9208,-2.9217,-2.9219,-2.9221,-2.9225,-2.9158,-2.9222,-2.9221,-2.9221,-2.9221,-2.9221,0,-2.924,-2.9237,-2.9245,-2.9248,-2.9255,-2.9238,-2.9238,-2.9245,-2.9256,-2.9256,-2.9262,-2.9273,-2.9281,-2.9273,-2.9279,-2.9288,-2.9281,-2.929,-2.929,-2.9289,-2.9236,-2.923,-2.9296,-2.9296,-2.9296,-2.9296,-2.9296,-2.9296,-2.9277,-2.9298,-2.929,-2.9309,-2.9306,-2.9318,-2.9319,-2.9321,-2.932,-2.9333,-2.934,-2.9334,-2.933,-2.9336,-2.9342,-2.934,-2.9343,-2.9356,-2.935,-2.93,-2.9293,-2.9286,-2.928,-2.9357,-2.9357,-2.9403,-2.9403,-2.9404]}]]